Regional Weather Roundup
Issued by NWS Sterling, VA

Home | Current Version | Previous Version | Graphics & Text | Print | Product List | Glossary On
Versions: 1 2 3 4 5 6 7 8 9 10 11 12 13 14 15 16 17 18 19 20 21 22 23 24 25 26 27
000
ASUS41 KLWX 281110
RWRLWX

REGIONAL WEATHER ROUNDUP
NATIONAL WEATHER SERVICE BALTIMORE MD/WASHINGTON DC
700 AM EDT THU APR 28 2016

Note: "FAIR" indicates few or no clouds below 12,000 feet
with no significant weather and/or obstructions to visibility.
 TC=TEMPERATURE CELSIUS

 * =Non NWS site. Station does not report precipitation (e.g. rain,
    snow, etc.), thunder, or fog.

DCZ001-MDZ009-015-VAZ040>042-051-053>054-281200-
WASHINGTON METRO

CITY           SKY/WX    TMP DP  RH WIND       PRES   REMARKS
WASHINGTON NAT CLOUDY    55  50  83 NE8       29.97R FOG
DULLES         LGT RAIN  53  50  89 NE7       29.96R FOG
ANDREWS AFB    CLOUDY    52  50  92 NE8       29.95R
FT BELVOIR     CLOUDY    54  52  94 CALM      29.96S
QUANTICO       CLOUDY    56  52  86 E9        29.96R
COLLEGE PARK*  CLOUDY    52  50  93 E3        29.97R
LEESBURG*      LGT RAIN  54  54 100 E5        29.98R
MANASSAS*      LGT RAIN  54  54 100 E3        29.95S FOG
GAITHERSBURG*  CLOUDY    52  46  82 CALM      30.01R

$$

MDZ006>007-011-014-281200-
BALTIMORE METRO

CITY           SKY/WX    TMP DP  RH WIND       PRES   REMARKS
BWI AIRPORT    CLOUDY    54  49  83 NE6       29.97R
MD SCIENCE CTR   N/A     54  47  77 MISG      29.99R
MARTIN STATE   CLOUDY    54  52  94 CALM      30.00R
ANNAPOLIS      CLOUDY    54  49  83 E3        29.98R
FORT MEADE*    CLOUDY    52  50  93 CALM      30.00R

$$

MDZ012-015-019>023-281200-
MARYLAND EASTERN SHORE

CITY           SKY/WX    TMP DP  RH WIND       PRES   REMARKS
OCEAN CITY     CLOUDY    52  47  83 NE6       29.97R
SALISBURY      CLOUDY    51  48  89 NE7       29.97R
CAMBRIDGE*     CLOUDY    50  46  87 NE5       29.96R
EASTON*        CLOUDY   N/A N/A N/A NE5       30.00S

$$

MDZ017>025-281200-
SOUTHERN MARYLAND

CITY           SKY/WX    TMP DP  RH WIND       PRES   REMARKS
PATUXENT RIVER LGT RAIN  53  49  86 NE5       29.97R FOG
ST INIGOES     LGT RAIN  53  52  96 NE8       29.95R FOG
LEONARDTOWN*   CLOUDY    52  50  93 E3        29.97R

$$

MDZ003>005-281200-
NORTH CENTRAL MARYLAND

CITY           SKY/WX    TMP DP  RH WIND       PRES   REMARKS
FREDERICK*     CLOUDY    52  52 100 E6        29.99S FOG
HAGERSTOWN APT CLOUDY    53  50  89 NE7       29.96R FOG
WESTMINSTER*   CLOUDY    52  48  87 CALM      29.97R FOG

$$

MDZ501>502-281200-
WESTERN MARYLAND

CITY           SKY/WX    TMP DP  RH WIND       PRES   REMARKS
OAKLAND*       FOG       50  50 100 SE13      29.90R VSB 1/4
CUMBERLAND*    CLOUDY    54  52  94 NE3       29.98R

$$

VAZ025>031-281200-
SHENANDOAH VALLEY

CITY           SKY/WX    TMP DP  RH WIND       PRES   REMARKS
WINCHESTER*    CLOUDY    54  52  94 E6        29.94R FOG
FRONT ROYAL*   CLOUDY    54  52  94 NE5       29.92R
LURAY*         CLOUDY    54  54 100 NE6       29.92R FOG
NEW MARKET*    CLOUDY    54  53  96 NE5       29.91R
STAUNTON*      RAIN      58  58 100 N3        29.93R
WAYNESBORO*    CLOUDY    56  55  96 MISG      29.91R

$$

WVZ021-048>050-054>055-281200-
EASTERN WEST VIRGINIA PANHANDLE

CITY           SKY/WX    TMP DP  RH WIND       PRES   REMARKS
MARTINSBURG    CLOUDY    52  50  93 E6        29.95R FOG
PETERSBURG*    CLOUDY    57  53  86 CALM      29.92R

$$

VAZ036>039-050-281200-
CENTRAL FOOTHILLS

CITY           SKY/WX    TMP DP  RH WIND       PRES   REMARKS
CHARLOTTESVILL HVY RAIN  56  54  93 NE5       29.92R VSB 1
CULPEPER*      CLOUDY    55  54  95 CALM      29.96R FOG
ORANGE*        LGT RAIN  55  55 100 CALM      29.95R
GORDONSVILLE*  CLOUDY    55  55 100 NE3       29.93R
WARRENTON*     CLOUDY    54  49  83 E5        29.94R HAZE

$$

VAZ055>057-281200-
NORTH AND CENTRAL PIEDMONT

CITY           SKY/WX    TMP DP  RH WIND       PRES   REMARKS
FREDERICKSBRG* LGT RAIN  55  55 100 NE3       29.94S
STAFFORD*      CLOUDY    54  52  93 E6        29.99R FOG

$$

NCZ024-NYZ072-PAZ021-071-VAZ022-071-281200-
OTHER REGIONAL OBSERVATIONS

CITY           SKY/WX    TMP DP  RH WIND       PRES   REMARKS
NEW YORK CITY  PTSUNNY   48  20  32 VRB6      30.06R
PHILADELPHIA   MOCLDY    52  38  58 NE8       30.01R
PITTSBURGH     LGT RAIN  53  31  42 NE7       29.87S
ROANOKE        FOG       59  59 100 SE8       29.94R VSB 1/2
RICHMOND       LGT RAIN  55  55 100 NE7       29.92R FOG
RALEIGH        MOCLDY    66  64  93 SE5       29.90R

$$

ANZ530>537-281200-
MARINE OBSERVATIONS

STATION/POSITION TIME  TEMP    WIND        PRES
                       AIR SEA DIR/SP/G
                 (UTC) (F)     (DEG/KT/KT) (MB)
THOMAS PT LIGHT  1100   54 58   60/  9/  9 1016.4R
BALT KEY BRIDGE  1000   54      60/  6/  6 1014.5R
COVE POINT       1000   52      50/  7/ 10 1014.7R
LEWISETTA        1000   55 62   70/  9/ 12 1013.4R
SOLOMONS ISLAND  1000   53 60   30/  5/  6   N/A
PINEY POINT      1000           80/  5/  6   N/A

$$





USA.gov is the U.S. government's official web portal to all federal, state and local government web resources and services.